Weather History for KGTR - February, 2013

Change the Weather History Date:

Monday, February 18, 2013

  Actual Average Record
Temperature  
Mean Temperature 48 °F -  
Max Temperature 62 °F 57 °F 80 °F (2000)
Min Temperature 35 °F 37 °F 21 °F (2015)
Degree Days  
Heating Degree Days 16    
Moisture  
Dew Point 36 °F    
Average Humidity 65    
Maximum Humidity 87    
Minimum Humidity 42    
Precipitation  
Precipitation 0.55 in - - ()
Sea Level Pressure  
Sea Level Pressure 30.10 in    
Wind  
Wind Speed 13 mph (SSE)    
Max Wind Speed 29 mph    
Max Gust Speed 37 mph    
Visibility 10 miles    
Events      
Averages and records for this station are not official NWS values.
T = Trace of Precipitation, MM = Missing Value Source: NWS Daily Summary

Daily Weather History Graph

Daily Weather History Graph

Search for Another Location

Airport or City:

Trip Planner

Search our weather history database for the weather conditions in past years. The results will help you decide how hot, cold, wet, or windy it might be!

Date:

Astronomy

Feb. 18, 2013 Rise Set
Actual Time 6:34 AM CST 5:42 PM CST
Civil Twilight 6:09 AM CST 6:07 PM CST
Nautical Twilight 5:40 AM CST 6:36 PM CST
Astronomical Twilight 5:11 AM CST 7:05 PM CST
Moon 11:36 AM CST (2/18) 1:06 AM CST (2/18)
Length of Visible Light 11h 57m
Length of Day
11h 07m
First Quarter, 58% of the Moon is Illuminated
Feb 18
First Quarter
Feb 25
Full
Mar 4
Last Quarter
Mar 11
New
Mar 19
First Quarter

Hourly Weather History & Observations

Time (CST) Temp. Windchill Dew Point Humidity Pressure Visibility Wind Dir Wind Speed Gust Speed Precip Events Conditions
12:15 AM 41.0 °F 34.7 °F 26.6 °F 57% 30.21 in 10.0 mi South 10.4 mph - N/A   Clear
12:35 AM 39.2 °F 32.5 °F 26.6 °F 61% 30.21 in 10.0 mi South 10.4 mph - N/A   Clear
12:55 AM 39.2 °F 32.5 °F 26.6 °F 61% 30.21 in 10.0 mi South 10.4 mph - N/A   Clear
1:15 AM 39.2 °F 32.0 °F 26.6 °F 61% 30.21 in 10.0 mi SSE 11.5 mph - N/A   Clear
1:35 AM 39.2 °F 32.0 °F 28.4 °F 65% 30.21 in 10.0 mi SSE 11.5 mph - N/A   Clear
1:55 AM 39.2 °F 31.2 °F 28.4 °F 65% 30.21 in 10.0 mi South 13.8 mph - N/A   Clear
2:15 AM 39.2 °F 31.6 °F 28.4 °F 65% 30.21 in 10.0 mi South 12.7 mph - N/A   Clear
2:35 AM 39.2 °F 32.0 °F 28.4 °F 65% 30.20 in 10.0 mi South 11.5 mph - N/A   Clear
2:55 AM 39.2 °F 32.5 °F 28.4 °F 65% 30.20 in 10.0 mi South 10.4 mph - N/A   Clear
3:15 AM 39.2 °F 32.5 °F 28.4 °F 65% 30.20 in 10.0 mi South 10.4 mph - N/A   Clear
3:55 AM 37.4 °F 30.8 °F 30.2 °F 75% 30.20 in 10.0 mi South 9.2 mph - N/A   Clear
4:15 AM 37.4 °F 30.8 °F 30.2 °F 75% 30.21 in 10.0 mi South 9.2 mph - N/A   Clear
4:35 AM 37.4 °F 30.3 °F 30.2 °F 75% 30.21 in 10.0 mi SSE 10.4 mph - N/A   Clear
4:55 AM 37.4 °F 31.4 °F 30.2 °F 75% 30.21 in 10.0 mi SSE 8.1 mph - N/A   Clear
5:15 AM 37.4 °F 30.8 °F 30.2 °F 75% 30.22 in 10.0 mi SSE 9.2 mph - N/A   Clear
5:35 AM 37.4 °F 30.3 °F 30.2 °F 75% 30.22 in 10.0 mi SSE 10.4 mph - N/A   Clear
6:50 AM 35.6 °F 28.6 °F 30.2 °F 81% 30.22 in 10.0 mi SSE 9.2 mph - N/A   Clear
8:50 AM 44.6 °F 38.8 °F 35.6 °F 71% 30.23 in 10.0 mi South 11.5 mph - N/A   Clear
10:45 AM 57.2 °F - 41.0 °F 55% 30.18 in 10.0 mi South 19.6 mph 28.8 mph N/A   Scattered Clouds
11:45 AM 60.8 °F - 42.8 °F 52% 30.17 in 10.0 mi South 18.4 mph 26.5 mph N/A   Mostly Cloudy
12:45 PM 60.8 °F - 39.2 °F 45% 30.11 in 10.0 mi SSE 18.4 mph - N/A   Mostly Cloudy
2:45 PM 62.6 °F - 39.2 °F 42% 30.04 in 10.0 mi South 25.3 mph 34.5 mph N/A   Mostly Cloudy
3:45 PM 60.8 °F - 39.2 °F 45% 30.00 in 10.0 mi South 19.6 mph 33.4 mph N/A   Mostly Cloudy
4:45 PM 60.8 °F - 39.2 °F 45% 29.99 in 10.0 mi South 25.3 mph 33.4 mph N/A   Mostly Cloudy
5:55 PM 59.0 °F - 39.2 °F 48% 29.99 in 10.0 mi South 19.6 mph 26.5 mph N/A   Mostly Cloudy
8:15 PM 57.2 °F - 39.2 °F 51% 29.95 in 10.0 mi South 26.5 mph 34.5 mph N/A   Overcast
8:35 PM 57.2 °F - 41.0 °F 55% 29.95 in 10.0 mi South 28.8 mph 36.8 mph N/A   Overcast
8:55 PM 55.4 °F - 42.8 °F 63% 29.95 in 10.0 mi South 19.6 mph 29.9 mph N/A   Overcast
9:15 PM 55.4 °F - 41.0 °F 58% 29.93 in 10.0 mi South 25.3 mph 32.2 mph N/A   Overcast
9:35 PM 55.4 °F - 41.0 °F 58% 29.92 in 10.0 mi SSE 21.9 mph - N/A   Overcast
9:55 PM 53.6 °F - 42.8 °F 67% 29.92 in 10.0 mi South 20.7 mph 31.1 mph N/A   Overcast
10:15 PM 51.8 °F - 44.6 °F 76% 29.90 in 10.0 mi SSE 15.0 mph 34.5 mph 0.02 in   Overcast
10:35 PM 51.8 °F - 44.6 °F 76% 29.89 in 10.0 mi SSE 18.4 mph 26.5 mph 0.07 in   Overcast
10:55 PM 50.0 °F - 44.6 °F 82% 30.00 in 5.0 mi WNW 13.8 mph 28.8 mph 0.30 in   Overcast
11:15 PM 50.0 °F - 46.4 °F 87% 30.00 in 10.0 mi NW 8.1 mph - 0.04 in   Overcast
11:35 PM 50.0 °F - 46.4 °F 87% 29.99 in 5.0 mi Calm Calm - 0.13 in   Overcast
11:55 PM 50.0 °F - 46.4 °F 87% 29.98 in 4.0 mi East 4.6 mph - 0.25 in   Overcast